Regional Weather Roundup
Issued by NWS

Home | Current Version | Previous Version | Graphics & Text | Print | Product List | Glossary Off
Versions: 1 2 3 4 5 6 7 8 9 10 11 12 13 14 15 16 17 18 19 20 21 22 23 24 25 26 27 28 29 30 31 32 33 34 35 36 37 38 39 40 41 42 43 44 45 46 47 48 49 50

000
ASUS43 KDMX 280307
RWRIA

WEATHER ROUNDUP FOR IOWA
NATIONAL WEATHER SERVICE DES MOINES IA
1000 PM CDT SUN JUL 27 2014

NOTE: "FAIR" INDICATES FEW OR NO CLOUDS BELOW 12,000 FEET WITH NO
SIGNIFICANT WEATHER AND/OR OBSTRUCTIONS TO VISIBILITY.

* - THESE STATIONS ARE NOT NWS STATIONS...THUS NOT UNDER NWS
QUALITY CONTROL.  THEY ALSO DO NOT REPORT WEATHER SUCH
AS PRECIPITATION OR FOG.

IAZ001>003-012>014-020>022-031>034-043>046-280400-
   NORTHWEST IOWA

CITY           SKY/WX    TMP DP  RH WIND       PRES   REMARKS
CARROLL *      CLEAR     63  57  82 NW9       30.13R
CHEROKEE *     CLEAR     63  59  88 NW5       30.16R
DENISON *      CLEAR     64  57  77 N6        30.14R
LE MARS *      CLEAR     63  57  82 NW6       30.18R
ORANGE CITY *  PTCLDY    61  55  82 NW3       30.19R
SHELDON *      CLEAR     61  57  88 NW6       30.16R
SIOUX CITY     CLEAR     66  56  70 N9        30.18R
SPENCER        CLEAR     59  56  89 NW7       30.16R
STORM LAKE *   CLEAR     61  59  94 NW8       30.16R
$$

IAZ055>058-069>071-079>083-090>094-280400-
   SOUTHWEST IOWA

CITY           SKY/WX    TMP DP  RH WIND       PRES   REMARKS
ATLANTIC *     CLEAR     64  57  77 CALM      30.14R
AUDUBON *      CLEAR     66  61  82 NW6       30.15R
CLARINDA *     CLEAR     66  64  94 NW5       30.15R
COUNCIL BLFS *   N/A     68  61  77 N6        30.14R
CRESTON *      CLEAR     63  57  82 NW6       30.13R
HARLAN  *      CLEAR     63  59  88 NW6       30.18R
LAMONI         CLEAR     66  56  70 N9        30.11R
RED OAK *      CLEAR     64  59  82 N3        30.14R
SHENANDOAH *   CLEAR     64  59  82 CALM      30.15R
$$

IAZ047>049-059>061-072>074-084-280400-
   CENTRAL IOWA

CITY           SKY/WX    TMP DP  RH WIND       PRES   REMARKS
AMES           CLEAR     66  58  75 NW12      30.08R
ANKENY *       CLEAR     68  59  73 NW10      30.08R
CHARITON *     CLEAR     64  57  77 NW7       30.09R
DES MOINES     CLEAR     69  57  65 NW10      30.08R
GRINNELL*      CLEAR     63  59  88 W6        30.06R
KNOXVILLE *    CLEAR     66  57  72 NW9       30.06R
MARSHALLTOWN   CLEAR     64  60  87 NW7       30.04R
PELLA *        CLEAR     66  59  77 NW8       30.07R
PERRY *          N/A     64  59  82 NW6       30.11R
$$

IAZ004>006-015-016-023>025-035-036-280400-
   NORTH CENTRAL IOWA

CITY           SKY/WX    TMP DP  RH WIND       PRES   REMARKS
ALGONA *       PTCLDY    66  61  82 NW7       30.12R
CLARION *      MOCLDY    66  61  82 NW13      30.09R
ESTHERVILLE    CLEAR     63  58  83 NW12      30.13R
FORT DODGE *   CLEAR     64  57  77 NW5       30.12R
MASON CITY     MOCLDY    66  61  84 NW13      30.09R
FOREST CITY *  MOCLDY    64  59  82 NE12      30.10R
IOWA FALLS *     N/A     64  59  82 NW8       30.08R
$$

IAZ007>011-017>019-026>030-037>042-050>054-066-280400-
   NORTHEAST IOWA

CITY           SKY/WX    TMP DP  RH WIND       PRES   REMARKS
CEDAR RAPIDS   CLEAR     66  60  81 W12       29.99R
CHARLES CITY * CLEAR     64  63  94 NW8       30.06R
CLINTON *      PTCLDY    63  59  88 NW7       29.98R
DECORAH *      PTCLDY    64  59  82 N6        30.01R
DUBUQUE        CLOUDY    67  60  78 N10       29.98R
MONTICELLO *   MOCLDY    68  63  83 NW6       29.98R
OELWEIN *      PTCLDY    63  61  94 NW7       30.03R
WATERLOO       LGT RAIN  66  62  87 NW13G23   30.02R
$$

IAZ064-065-067-068-078-280400-
   EAST CENTRAL IOWA

CITY           SKY/WX    TMP DP  RH WIND       PRES   REMARKS
DAVENPORT      CLEAR     65  60  84 W8        29.97R
IOWA CITY      CLEAR     69  61  75 NW10      30.01R
MT. PLEASANT * CLEAR     68  57  68 W8G16     30.01R
MUSCATINE *    CLEAR     70  61  73 NW12      29.98R
QUAD CITIES    CLEAR     71  59  65 NW14G20   29.95R
$$

IAZ062-063-075>077-085>089-095>099-280400-
   SOUTHEAST IOWA

CITY           SKY/WX    TMP DP  RH WIND       PRES   REMARKS
BURLINGTON     CLEAR     68  59  73 NW7       30.00R
FAIRFIELD *    CLEAR     66  59  77 W7G13     30.03R
FORT MADISON * CLEAR     68  61  77 W7        30.02R
KEOKUK *       CLEAR     68  59  73 W8        30.01R
OSKALOOSA *      N/A     64  59  82 NW9       30.05R
CENTERVILLE *  CLEAR     63  57  82 NW7       30.09R
OTTUMWA        CLEAR     65  58  78 NW10      30.05R
WASHINGTON *   CLEAR     66  61  82 W8        30.01R
$$

ABBREVIATIONS USED IN REMARKS
   TC - TEMPERATURES IN CELSIUS
  WCI - WIND CHILL INDEX
   HX - HEAT INDEX
  VSB - VISIBILITY
$$




USA.gov is the U.S. government's official web portal to all federal, state and local government web resources and services.